Weather History for Tekamah, NE

Change the Weather History Date:

Thursday, March 22, 2012

  Actual Average Record
Temperature  
Mean Temperature 56 °F -  
Max Temperature 66 °F 51 °F 73 °F (2011)
Min Temperature 46 °F 27 °F 2 °F (1955)
Degree Days  
Heating Degree Days 9    
Growing Degree Days 6 (Base 50)    
Moisture  
Dew Point 51 °F    
Average Humidity 76    
Maximum Humidity 94    
Minimum Humidity 43    
Precipitation  
Precipitation 0.07 in - - ()
Sea Level Pressure  
Sea Level Pressure 29.90 in    
Wind  
Wind Speed 9 mph (SSE)    
Max Wind Speed 15 mph    
Max Gust Speed 22 mph    
Visibility 9 miles    
Events Rain    
Averages and records for this station are not official NWS values.
T = Trace of Precipitation, MM = Missing Value Source: NWS Daily Summary

Daily Weather History Graph

Daily Weather History Graph

Search for Another Location

Airport:

Trip Planner

Search our weather history database for the weather conditions in past years. The results will help you decide how hot, cold, wet, or windy it might be!

Date:

Astronomy

Mar. 22, 2012 Rise Set
Actual Time 7:23 AM CDT 7:39 PM CDT
Civil Twilight 6:55 AM CDT 8:07 PM CDT
Nautical Twilight 6:23 AM CDT 8:40 PM CDT
Astronomical Twilight 5:50 AM CDT 9:13 PM CDT
Moon 7:02 AM CDT (3/22) 8:06 PM CDT (3/22)
Length of Visible Light 13h 11m
Length of Day
12h 16m
New Moon, 0% of the Moon is Illuminated
Mar 22
New Moon
Mar 30
First Quarter
Apr 6
Full
Apr 13
Last Quarter
Apr 21
New

Hourly Weather History & Observations

Time (CDT) Temp. Dew Point Humidity Pressure Visibility Wind Dir Wind Speed Gust Speed Precip Events Conditions
12:51 AM 62.6 °F 57.2 °F 82% 29.91 in 5.0 mi East 12.7 mph 21.9 mph 0.01 in Rain Light Rain
12:54 AM 62.1 °F 57.0 °F 84% 29.89 in 4.0 mi East 15.0 mph 21.9 mph 0.01 in Rain Light Rain
1:54 AM 62.1 °F 57.9 °F 86% 29.87 in 10.0 mi NE 10.4 mph - 0.00 in   Overcast
3:54 AM 62.1 °F 57.9 °F 86% 29.85 in 8.0 mi East 9.2 mph - 0.01 in Rain Light Rain
4:17 AM 62.6 °F 57.2 °F 82% 29.87 in 7.0 mi East 10.4 mph - 0.00 in Rain Light Rain
4:41 AM 60.8 °F 57.2 °F 88% 29.87 in 9.0 mi East 11.5 mph - 0.00 in   Overcast
4:54 AM 61.0 °F 57.9 °F 90% 29.85 in 8.0 mi ESE 9.2 mph - 0.00 in   Overcast
5:54 AM 60.1 °F 55.9 °F 86% 29.87 in 10.0 mi SE 11.5 mph - 0.02 in   Overcast
6:22 AM 57.2 °F 55.4 °F 94% 29.88 in 2.0 mi SE 6.9 mph - 0.03 in Rain Light Rain
6:29 AM 57.2 °F 55.4 °F 94% 29.89 in 4.0 mi South 11.5 mph - 0.03 in Rain Light Rain
6:54 AM 57.0 °F 53.1 °F 87% 29.89 in 10.0 mi South 11.5 mph - 0.03 in   Overcast
7:54 AM 55.0 °F 51.1 °F 86% 29.91 in 10.0 mi South 8.1 mph - N/A   Overcast
8:54 AM 55.0 °F 51.1 °F 86% 29.93 in 10.0 mi South 11.5 mph - N/A   Partly Cloudy
10:39 AM 55.4 °F 51.8 °F 88% 29.95 in 10.0 mi South 3.5 mph - N/A   Mostly Cloudy
10:54 AM 55.9 °F 51.1 °F 84% 29.94 in 10.0 mi South 9.2 mph - N/A   Overcast
11:22 AM 55.4 °F 51.8 °F 88% 29.96 in 10.0 mi South 8.1 mph - N/A   Mostly Cloudy
11:54 AM 57.0 °F 50.0 °F 77% 29.95 in 10.0 mi South 9.2 mph - N/A   Overcast
12:39 PM 60.8 °F 50.0 °F 68% 29.95 in 10.0 mi SSW 9.2 mph - N/A   Scattered Clouds
12:54 PM 60.1 °F 48.9 °F 67% 29.93 in 10.0 mi SSW 6.9 mph - N/A   Partly Cloudy
1:54 PM 63.0 °F 46.9 °F 56% 29.93 in 10.0 mi South 10.4 mph - N/A   Partly Cloudy
2:54 PM 64.9 °F 46.0 °F 50% 29.90 in 10.0 mi South 6.9 mph - N/A   Partly Cloudy
3:54 PM 64.9 °F 44.1 °F 47% 29.89 in 10.0 mi SSE 4.6 mph 16.1 mph N/A   Clear
4:54 PM 64.9 °F 44.1 °F 47% 29.88 in 10.0 mi SE 5.8 mph - N/A   Partly Cloudy
5:54 PM 66.0 °F 43.0 °F 43% 29.88 in 10.0 mi Calm Calm - N/A   Clear
6:54 PM 64.0 °F 42.1 °F 45% 29.88 in 10.0 mi Calm Calm - N/A   Clear
7:54 PM 60.1 °F 45.0 °F 57% 29.89 in 10.0 mi Calm Calm - N/A   Clear
8:54 PM 54.0 °F 46.0 °F 75% 29.91 in 10.0 mi North 3.5 mph - N/A   Clear
9:54 PM 51.1 °F 45.0 °F 80% 29.91 in 9.0 mi NNW 4.6 mph - N/A   Clear
10:54 PM 46.9 °F 43.0 °F 86% 29.93 in 8.0 mi NNW 5.8 mph - N/A   Clear
11:54 PM 50.0 °F 44.1 °F 80% 29.93 in 10.0 mi SW 9.2 mph - N/A   Scattered Clouds